Flag for Germany Weather past 2 weeks in Gladbeck, North Rhine-Westphalia, Germany

Now
63 °F

Scattered clouds.


Feels Like: 63 °F
Forecast: 52 / 70 °F
Wind: 2 mph from Southwest

Location: Duesseldorf

Current Time: Oct 2, 2014 at 11:37:08 AM

Latest Report: Oct 2, 2014 at 11:00 AM


Visibility: 8 mi

Pressure: 30.40 "Hg

Humidity: 76%

Dew point: 55 °F

Location of GladbeckLocation

Historic Weather in Gladbeck — Graph

°F

Gladbeck temperature yesterday

Maximum temperature yesterday: 69 °F (at 4:00 PM)
Minimum temperature yesterday: 52 °F (at 2:00 AM)
Average temperature yesterday: 60 °F

Past Weeks' High & Low Weather Summary

 TemperatureHumidityPressure
High76 °F (Sep 17, 5:00 PM)99% (Sep 25, 1:00 AM)30.40 "Hg (Sep 25, 1:00 AM)
Low43 °F (Sep 23, 5:00 AM)48% (Sep 17, 6:00 PM)29.83 "Hg (Sep 18, 8:00 PM)
Average60 °F81%30.11 "Hg
* Reported Sep 17 10:00 AM — Oct 2 10:00 AM, Gladbeck, Weather by CustomWeather, © 2014

Note: Actual official high and low records may vary slightly from our data, if they occured in-between our weather recording intervals... More about our weather records

Advertising

Gladbeck weather history for previous 24 hours

 ConditionsComfort  
Time TempWeatherWind HumidityBarometerVisibility
10:00 AM
Oct 2
59 °FPartly sunny.2 mph87%30.40 "Hg7 mi
9:00 AM57 °FPassing clouds.3 mph88%30.39 "Hg7 mi
8:00 AM56 °FPartly sunny.2 mph91%30.38 "Hg7 mi
7:00 AM55 °FPassing clouds.3 mph92%30.38 "Hg9 mi
6:00 AM56 °FPassing clouds.1 mph92%30.37 "Hg12 mi
5:00 AM56 °FPassing clouds.5 mph91%30.37 "Hg16 mi
4:00 AM57 °FPassing clouds.3 mph91%30.37 "Hg16 mi
3:00 AM56 °FPassing clouds.1 mph91%30.37 "Hg16 mi
2:00 AM55 °FPassing clouds.2 mph92%30.37 "Hg16 mi
1:00 AM54 °FPassing clouds.1 mph96%30.37 "Hg16 mi
12:00 AM55 °FPassing clouds.1 mph95%30.36 "Hg19 mi
10:00 PM
Oct 1
59 °FPassing clouds.1 mph89%30.35 "Hg22 mi
9:00 PM57 °FPassing clouds.1 mph92%30.34 "Hg22 mi
8:00 PM60 °FPassing clouds.1 mph87%30.33 "Hg19 mi
7:00 PM65 °FPassing clouds.1 mph72%30.32 "Hg22 mi
6:00 PM68 °FPassing clouds.1 mph63%30.31 "Hg22 mi
4:00 PM69 °FPartly sunny.2 mph63%30.31 "Hg17 mi
3:00 PM68 °FScattered clouds.3 mph62%30.32 "Hg16 mi
2:00 PM67 °FPassing clouds.3 mph68%30.33 "Hg14 mi
1:00 PM66 °FPassing clouds.3 mph72%30.33 "Hg11 mi
12:00 PM65 °FPassing clouds.2 mph77%30.33 "Hg7 mi
11:00 AM62 °FFog.3 mph87%30.33 "Hg4 mi
Weather by CustomWeather, © 2014

See weather overviewHow to use our weather pages